Find Starlink 3329

NORAD ID: 50827 Int'l Des: 2022-001 Owner: SPXS Country: US Constellation: starlink operational
LEOCIRCULAR

現在のビュー

3D地球を読み込み中...

About Starlink 3329

Starlink 3329 (NORAD 50827) is a starlink constellation satellite (v1.5) launched Jan 6, 2022 by SPXS of US. It operates in LEO, CIRCULAR orbit with a mass of 297.00 kg.

Starlink 3329について

説明を読み込み中...

次回通過

Passes for default location (London). Set your location on the main map for personalized predictions.

高度履歴

Loading altitude history...

軌道要素

1 50827U 22001AA 26168.05179355 -.00000275 00000-0 83438-6 0 9992
2 50827 53.1610 82.9742 0001580 94.8549 265.2623 15.08844067245409
Epoch: Jun 17, 2026 • Age: 33 hours

現在のステータス

高度 542.1 km
速度 7.59 km/s
衛星直下点 -6.69°S, 6.16°E
打ち上げ日 Jan 6, 2022
運用期間 4.4 years
タイプ internet

技術仕様

分類 Payload
質量 297.00 kg
乾燥質量 275.00 kg
総質量 297.00 kg
長さ 0.20 m
直径 2.80 m
スパン 9.00 m
形状 Box + pan
製造者 SPXS
バスタイプ Starlink
フェーズステータス In Orbit
所有者/国 SPXS/US

Most Searched